sat.trackr.live / text

‹ back to catalog

HORS 3 (RS81S)

NORAD 61753 · 2024-199U

PAYLOAD ACTIVE UNKNOWN

§ Identity

Operator
Country
CIS
Launch date
2024-11-04
Launch site
VOSTO
Launch vehicle
Mass (kg)
RCS (m²)

Purposes: comms

External: N2YO · Heavens-Above · Gunter

§ Orbital elements

Epoch: 2026-09-19T22:24:21.347424Z

Period
92.19 min
Inclination
97.2793°
Eccentricity
0.0002484
Mean motion
15.61941215 rev/d
Perigee alt
380.4 km
Apogee alt
383.7 km
Semi-major
6,760.2 km
B*
4.3349e-4
RAAN
141.0433°
Arg perigee
300.7001°
Mean anomaly
59.4012°
Rev number
15,231

§ Raw data

HORS 3 (RS81S)1 61753U 24199U   26262.93358041  .00037717  00000+0  43349-3 0  99982 61753  97.2793 141.0433 0002484 300.7001  59.4012 15.61941215152314

JSON: /api/v1/satellites/61753 · /tle

For live sub-satellite position, see the globe view (requires WebGL).

§ Visibility from observer

Set your observer location to see the next 7 days of passes ≥ 10°. The values pass through the URL so the page stays shareable.

No JS? Fill the form by hand. The geolocation button needs JavaScript.

§ Radio — SatNOGS DB

ModeDescriptionDownlinkUplink
FSK Mode U - FSK38k4 435.650 MHz
FSK Mode U - Telemetry 435.200 MHz

2 transmitters · refreshed weekly from db.satnogs.org